"Pseudo-MPEC" for P10Lo1x

Created 2019 Jan 20 0:18:22 UT using Find_Orb

Click here for an explanation of pseudo-MPECs

 
 Astrometry: 
     P10Lo1x  C2019 01 106RB@ruH`v5ARp60'+C78AAstrometrywhmcFw,3O^#[wSV9R55*_F51
     P10Lo1x  C2019 01 10IYckL8$2%Sp\hPZA,448##CcN8*_Pbc%Sj+kH=JUg-CqAXU,JX0GF51
     P10Lo1x  C2019 01 10u9-Tmw_8yVcTwpQI7o[l!+$eSFredacted;$8%/\!IiU@oT?%qM#F51
     P10Lo1x KC2019 01 11J(l)HEOL8.5N/^=?T74c09Z]pH;vZB]_J*hr)=xAK4I5L@T'WBjgH21
     P10Lo1x KC2019 01 11(-a@lfJZ8SQkOV%xE+?y2PuV1'B=-y:#?`Cit\wKML\,J'7C[$tVH21
     P10Lo1x KC2019 01 11IP^=.#XQGRgDX:p:tulVplgP^.FLmclicko#QfeTD!w*y/xo#yjx291
     P10Lo1x KC2019 01 11El*kw`u(M`7qWlHalW9aZl+37GBRUrx!i@T*o61VM\3@+NfgMQ43H21
     P10Lo1x KC2019 01 11Xk4EeBO[Y:k`wXZ(,FxMNOaam3u-k?eG1TlPPvec6VJ34^ot+H3Q291
     P10Lo1x KC2019 01 11uirBTi*Vep@UhereDio(8Cg`y8=N7!Riwu;sOub3R']L]p3xVf%V291
     P10Lo1x ^C2019 01 11.65329112 42 20.722-15 13 48.95   ~1BKI 21.80GVNEOCP568
     P10Lo1x ^C2019 01 11.65424112 42 20.847-15 13 49.47   ~1BKI 21.81GVNEOCP568
     P10Lo1x ^C2019 01 11.65519112 42 20.973-15 13 50.00   ~1BKI 21.74GVNEOCP568
     P10Lo1x |C2019 01 15!Q%vmy%h;ltwPFZn:[oXk57!U.N$pW%H\!o5Z7QM2N#XbKO`D4Q3807
     P10Lo1x |C2019 01 15_8L-u(V0bm;5%Cl8+qgaWePcxV@xwg]6:Devu^n7NM4te@F,[#q1807
     P10Lo1x |C2019 01 15ZW1JqV5m0d,XU4for`j.K0TXE2)1RyRiiLIF^Mrnb?XL%k(9QrV\807
     P10Lo1x |C2019 01 19OKEnKAncH@10`D6e5rY@D[PZk?hk.qp-i3d2v2Sbvm,22A_k;]EL807
     P10Lo1x |C2019 01 19Y*Tw=r0m*=Uda8v\QBQ5w-N;AB%ca^Go\gF2q=Aw')jW?uSq00H=807
     P10Lo1x |C2019 01 19v'explanation#l=B3cT_Zu6;XLRV#f6K^N4vcWR`^V,Uxs,XR[o807

Station data:
(291) LPL/Spacewatch II  (N31.961669 W111.599905)  US/Arizona.  Observers J.
   V. Scotti, R. S. McMillan. 1.8-m f/2.7 reflector + CCD.
(568) Mauna Kea  (N19.826116 W155.472200)  US/Hawaii.
(807) Cerro Tololo Observatory, La Serena  (S30.169136 W70.805900)  Chile.
   1.5-m Ritchey-Chrétien.
(F51) Pan-STARRS 1, Haleakala  (N20.707235 W156.255910)  US/Hawaii.
   Observers N. Primak, A. Schultz, S. Watters, J. Thiel, T. Goggia. Measurer
   PS1 Science Consortium. 1.8-m Ritchey-Chrétien + CCD.
(H21) Astronomical Research Observatory, Westfield  (N39.483057 W87.968270)
   US/Illinois. 0.76-m f/3.0 astrograph + CCD.

Orbital elements:  P10Lo1x
   Perihelion 2019 Jan 23.948670 +/- 0.194 TT = 22:46:05 (JD 2458507.448670)
Epoch 2019 Jan 19.0 TT = JDT 2458502.5   Earth MOID: 0.5840   Ma: 0.0201
M 358.91751469 +/- 0.10             (J2000 ecliptic)          AutoNEOCP
n   0.21874265 +/- 0.0182           Peri.  330.23294 +/- 0.18
a   2.72801694 +/- 0.152            Node   193.31228 +/- 0.42
e   0.4261296 +/- 0.0282            Incl.   11.83084 +/- 0.041
P   4.51                   H 19.4   G  0.15   U 10.1  
q 1.56552809 +/- 0.0116    Q 3.89050578 +/- 0.336
From 18 observations 2019 Jan. 10-19; mean residual 0".31
Residuals in arcseconds: 
190110 F51  .20-  .29-    190111 H21  .06+  .23+    190115 807  .12-  .13-    
190110 F51  .05-  .40-    190111 291  .37+  1.5+    190115 807  .08-  .21-    
190110 F51  .13-  .25-    190111 291  .08-  .04+    190115 807  .02+  .18-    
190111 H21  .08+  .02-    190111 568  .09-  .22-    190119 807  .03-  .23+    
190111 H21  .33+  .42+    190111 568  .11-  .21-    190119 807  .01-  .03-    
190111 291  .05+  .26-    190111 568  .11-  .20-    190119 807  .10+  .03-    

Ephemerides (geocentric):
Date (UTC) HH   RA              Dec         delta   r     elong  mag " sig PA
---- -- -- --  -------------   -----------  ------ ------ -----  --- ---- ---
2019 01 20 00  13 00 53.078   -16 23 42.03  1.0755 1.5659  98.9 22.0 .580  90
2019 01 20 01  13 00 58.510   -16 24 00.18  1.0752 1.5659  98.9 22.0 .589  90
2019 01 20 02  13 01 03.942   -16 24 18.30  1.0749 1.5659  98.9 22.0 .598  89
2019 01 20 03  13 01 09.372   -16 24 36.39  1.0746 1.5659  99.0 22.0 .608  88
2019 01 20 04  13 01 14.800   -16 24 54.46  1.0743 1.5659  99.0 22.0 .618  88
2019 01 20 05  13 01 20.228   -16 25 12.49  1.0740 1.5659  99.0 22.0 .628  87
2019 01 20 06  13 01 25.654   -16 25 30.50  1.0737 1.5659  99.0 22.0 .638  86
2019 01 20 07  13 01 31.078   -16 25 48.47  1.0734 1.5659  99.0 22.0 .649  86
2019 01 20 08  13 01 36.502   -16 26 06.42  1.0731 1.5659  99.1 22.0 .659  85
2019 01 20 09  13 01 41.924   -16 26 24.33  1.0727 1.5659  99.1 22.0 .670  84
2019 01 20 10  13 01 47.344   -16 26 42.22  1.0724 1.5658  99.1 22.0 .681  84
2019 01 20 11  13 01 52.764   -16 27 00.08  1.0721 1.5658  99.1 22.0 .692  83
2019 01 20 12  13 01 58.182   -16 27 17.91  1.0718 1.5658  99.1 22.0 .703  83
2019 01 20 13  13 02 03.598   -16 27 35.71  1.0715 1.5658  99.2 22.0 .714  82
2019 01 20 14  13 02 09.013   -16 27 53.48  1.0712 1.5658  99.2 22.0 .726  82
2019 01 20 15  13 02 14.427   -16 28 11.22  1.0709 1.5658  99.2 22.0 .737  81
2019 01 20 16  13 02 19.840   -16 28 28.93  1.0706 1.5658  99.2 22.0 .749  81
2019 01 20 17  13 02 25.251   -16 28 46.62  1.0703 1.5658  99.2 22.0 .761  80
2019 01 20 18  13 02 30.661   -16 29 04.27  1.0700 1.5658  99.3 22.0 .773  80
2019 01 20 19  13 02 36.069   -16 29 21.89  1.0696 1.5658  99.3 22.0 .785  79
2019 01 20 20  13 02 41.476   -16 29 39.48  1.0693 1.5658  99.3 22.0 .798  79
2019 01 20 21  13 02 46.882   -16 29 57.05  1.0690 1.5658  99.3 22.0 .810  78
2019 01 20 22  13 02 52.286   -16 30 14.58  1.0687 1.5658  99.3 22.0 .823  78
2019 01 20 23  13 02 57.689   -16 30 32.09  1.0684 1.5658  99.4 22.0 .836  77
2019 01 21 00  13 03 03.091   -16 30 49.56  1.0681 1.5658  99.4 22.0 .849  77
2019 01 21 01  13 03 08.491   -16 31 07.01  1.0678 1.5657  99.4 22.0 .862  77
2019 01 21 02  13 03 13.890   -16 31 24.43  1.0675 1.5657  99.4 22.0 .876  76
2019 01 21 03  13 03 19.287   -16 31 41.81  1.0672 1.5657  99.4 22.0 .889  76
2019 01 21 04  13 03 24.683   -16 31 59.17  1.0669 1.5657  99.5 22.0 .903  75
2019 01 21 05  13 03 30.078   -16 32 16.50  1.0666 1.5657  99.5 22.0 .917  75
2019 01 21 06  13 03 35.471   -16 32 33.79  1.0662 1.5657  99.5 22.0 .931  75
2019 01 21 07  13 03 40.863   -16 32 51.06  1.0659 1.5657  99.5 22.0 .945  74
2019 01 21 08  13 03 46.253   -16 33 08.30  1.0656 1.5657  99.5 22.0 .959  74
2019 01 21 09  13 03 51.642   -16 33 25.51  1.0653 1.5657  99.6 22.0 .974  74
2019 01 21 10  13 03 57.030   -16 33 42.69  1.0650 1.5657  99.6 22.0 .988  73
2019 01 21 11  13 04 02.416   -16 33 59.83  1.0647 1.5657  99.6 22.0 1.00  73
2019 01 21 12  13 04 07.801   -16 34 16.95  1.0644 1.5657  99.6 22.0 1.02  73
2019 01 21 13  13 04 13.184   -16 34 34.04  1.0641 1.5657  99.6 22.0 1.03  72
2019 01 21 14  13 04 18.566   -16 34 51.10  1.0638 1.5657  99.7 22.0 1.05  72
2019 01 21 15  13 04 23.947   -16 35 08.13  1.0635 1.5657  99.7 22.0 1.06  72
2019 01 21 16  13 04 29.326   -16 35 25.13  1.0632 1.5657  99.7 22.0 1.08  71
2019 01 21 17  13 04 34.704   -16 35 42.10  1.0629 1.5657  99.7 22.0 1.09  71
2019 01 21 18  13 04 40.080   -16 35 59.04  1.0626 1.5657  99.7 22.0 1.11  71
2019 01 21 19  13 04 45.455   -16 36 15.95  1.0622 1.5656  99.8 22.0 1.13  70
2019 01 21 20  13 04 50.829   -16 36 32.83  1.0619 1.5656  99.8 22.0 1.14  70
2019 01 21 21  13 04 56.201   -16 36 49.68  1.0616 1.5656  99.8 22.0 1.16  70
2019 01 21 22  13 05 01.571   -16 37 06.50  1.0613 1.5656  99.8 22.0 1.18  70
2019 01 21 23  13 05 06.941   -16 37 23.29  1.0610 1.5656  99.8 22.0 1.19  69